This is the latest recevied weather packets stored in our database for station/object OK1FPA-13. If no packets are shown the sender has not sent any weather packets the latest 10 day(s).
| Time | Temp. | Humidity | Pressure | Rain* | Wind** | Luminosity | Snow |
|---|---|---|---|---|---|---|---|
| 1777216456 | 15° C | 31% | 1021.7 hPa | - | - | - | - |
| 1777215855 | 14.44° C | 31% | 1021.9 hPa | - | - | - | - |
| 1777215254 | 14.44° C | 30% | 1021.9 hPa | - | - | - | - |
| 1777214654 | 15° C | 30% | 1021.8 hPa | - | - | - | - |
| 1777214054 | 14.44° C | 30% | 1021.9 hPa | - | - | - | - |
| 1777213454 | 15° C | 30% | 1021.8 hPa | - | - | - | - |
| 1777212854 | 14.44° C | 30% | 1021.8 hPa | - | - | - | - |
| 1777212254 | 15° C | 31% | 1021.8 hPa | - | - | - | - |
| 1777211655 | 14.44° C | 31% | 1021.7 hPa | - | - | - | - |
| 1777211054 | 14.44° C | 32% | 1021.8 hPa | - | - | - | - |
| 1777210454 | 13.33° C | 31% | 1022 hPa | - | - | - | - |
| 1777209857 | 15° C | 31% | 1021.9 hPa | - | - | - | - |
| 1777209253 | 15° C | 30% | 1022.1 hPa | - | - | - | - |
| 1777208653 | 13.33° C | 31% | 1022.2 hPa | - | - | - | - |
| 1777208053 | 14.44° C | 33% | 1022.2 hPa | - | - | - | - |
| 1777207453 | 13.89° C | 32% | 1022.2 hPa | - | - | - | - |
| 1777206853 | 13.33° C | 32% | 1022.2 hPa | - | - | - | - |
| 1777206253 | 13.89° C | 31% | 1022.3 hPa | - | - | - | - |
| 1777205653 | 12.78° C | 33% | 1022.5 hPa | - | - | - | - |
| 1777205053 | 13.33° C | 34% | 1022.4 hPa | - | - | - | - |
| 1777204453 | 12.78° C | 35% | 1022.4 hPa | - | - | - | - |
| 1777203853 | 13.33° C | 33% | 1022.5 hPa | - | - | - | - |
| 1777203253 | 12.22° C | 34% | 1022.4 hPa | - | - | - | - |
| 1777202653 | 13.33° C | 37% | 1022.5 hPa | - | - | - | - |
| 1777202053 | 12.78° C | 36% | 1022.5 hPa | - | - | - | - |
* Rain since midnight (hover to see other rain measurements)
** Current wind speed in m/s (hover to see current wind gust speed)